TimeMDT,TemperatureF,Dew PointF,Humidity,Sea Level PressureIn,VisibilityMPH,Wind Direction,Wind SpeedMPH,Gust SpeedMPH,PrecipitationIn,Events,Conditions,WindDirDegrees,DateUTC
12:56 AM,41.0,28.9,62,29.89,10.0,WSW,13.8,-,N/A,,Clear,240,2013-05-25 06:56:00
1:56 AM,43.0,28.0,56,29.88,10.0,SW,16.1,-,N/A,,Clear,230,2013-05-25 07:56:00
2:56 AM,41.0,28.9,62,29.88,10.0,SSW,17.3,-,N/A,,Clear,210,2013-05-25 08:56:00
3:56 AM,39.9,28.0,63,29.88,10.0,SSW,15.0,-,N/A,,Clear,210,2013-05-25 09:56:00
4:56 AM,36.0,27.0,70,29.90,10.0,South,5.8,-,N/A,,Clear,190,2013-05-25 10:56:00
5:56 AM,41.0,28.0,60,29.91,10.0,WSW,13.8,23.0,N/A,,Clear,240,2013-05-25 11:56:00
6:56 AM,43.0,28.0,56,29.92,10.0,SW,9.2,-,N/A,,Clear,220,2013-05-25 12:56:00
7:56 AM,48.0,28.9,48,29.92,10.0,SSW,8.1,-,N/A,,Clear,200,2013-05-25 13:56:00
8:56 AM,51.1,27.0,39,29.92,10.0,SW,18.4,-,N/A,,Clear,230,2013-05-25 14:56:00
9:56 AM,50.0,28.0,43,29.94,10.0,WSW,15.0,-,N/A,,Clear,240,2013-05-25 15:56:00
10:56 AM,52.0,28.9,41,29.93,10.0,WSW,16.1,24.2,N/A,,Clear,250,2013-05-25 16:56:00
11:56 AM,54.0,28.0,37,29.91,10.0,WSW,20.7,31.1,N/A,,Clear,240,2013-05-25 17:56:00
12:56 PM,57.9,30.0,35,29.89,10.0,WSW,19.6,28.8,N/A,,Clear,250,2013-05-25 18:56:00
1:56 PM,57.0,27.0,32,29.91,10.0,WSW,18.4,21.9,N/A,,Clear,250,2013-05-25 19:56:00
2:56 PM,57.0,27.0,32,29.92,10.0,SW,12.7,-,N/A,,Clear,220,2013-05-25 20:56:00
3:56 PM,61.0,27.0,27,29.91,10.0,WSW,13.8,19.6,N/A,,Scattered Clouds,240,2013-05-25 21:56:00
4:56 PM,61.0,26.1,26,29.92,10.0,West,18.4,-,N/A,,Partly Cloudy,260,2013-05-25 22:56:00
5:56 PM,61.0,26.1,26,29.91,10.0,West,20.7,26.5,N/A,,Clear,280,2013-05-25 23:56:00
6:56 PM,60.1,28.0,30,29.91,10.0,West,20.7,25.3,N/A,,Mostly Cloudy,280,2013-05-26 00:56:00
7:56 PM,55.9,26.1,32,29.93,10.0,West,19.6,26.5,N/A,,Partly Cloudy,280,2013-05-26 01:56:00
8:56 PM,53.1,28.0,38,29.93,10.0,West,13.8,-,N/A,,Clear,270,2013-05-26 02:56:00
9:56 PM,46.9,30.0,52,29.96,10.0,West,11.5,-,N/A,,Clear,280,2013-05-26 03:56:00
10:56 PM,43.0,30.9,62,29.97,10.0,WNW,10.4,-,N/A,,Scattered Clouds,290,2013-05-26 04:56:00
11:56 PM,41.0,30.9,67,29.98,10.0,West,8.1,-,N/A,,Clear,280,2013-05-26 05:56:00